Location: Matera
(40.6670°N, 16.6000°E)
Time: 09:51:45
(UTC+02:00)

ISS - Visible Passes

Search period start: 08 May 2021 00:00
Search period end: 18 May 2021 00:00
Orbit: 418 x 421 km, 51.6° (Epoch: 08 May)

Date Brightness Start Highest point End Pass type
(mag) Time Alt. Az. Time Alt. Az. Time Alt. Az.
08 May -1.1 02:49:24 16° NNW 02:49:49 16° NNW 02:52:00 10° NNE visible
08 May -0.8 04:25:53 10° NNW 04:27:42 14° N 04:29:31 10° NE visible
09 May -0.7 02:03:26 16° N 02:03:26 16° N 02:04:42 10° NNE visible
09 May -0.7 03:38:21 10° NNW 03:40:01 13° N 03:41:39 10° NNE visible
10 May -0.7 02:50:38 10° NNW 02:52:18 13° N 02:53:57 10° NNE visible
10 May -0.9 04:27:40 10° NNW 04:30:08 18° NNE 04:32:35 10° ENE visible
11 May -0.7 02:04:21 14° NNW 02:04:36 14° N 02:06:27 10° NNE visible
11 May -0.7 03:40:22 10° NNW 03:42:28 15° NNE 03:44:36 10° NE visible
12 May -0.4 01:18:16 13° NNE 01:18:16 13° NNE 01:19:05 10° NNE visible
12 May -0.6 02:52:58 10° NNW 02:54:47 14° N 02:56:37 10° NE visible
12 May -1.8 04:29:19 10° NW 04:32:24 32° NNE 04:35:29 10° E visible
13 May -0.5 02:05:27 10° NNW 02:07:05 13° N 02:08:44 10° NNE visible
13 May -1.2 03:42:01 10° NNW 03:44:50 23° NNE 03:47:37 10° ENE visible
14 May -0.4 01:18:38 12° NNW 01:19:22 13° N 01:21:01 10° NNE visible
14 May -0.9 02:54:44 10° NNW 02:57:12 18° NNE 02:59:40 10° ENE visible
14 May -3.6 04:31:03 10° NW 04:34:27 80° NE 04:37:49 10° ESE visible
14 May -3.0 21:14:19 10° SSW 21:17:18 30° SE 21:20:19 10° ENE visible
14 May -2.1 22:50:58 10° W 22:54:05 34° NNW 22:55:40 21° NNE visible
15 May -0.5 00:29:49 10° NW 00:31:40 14° N 00:33:31 10° NNE visible
15 May -0.6 02:07:25 10° NNW 02:09:33 15° NNE 02:11:39 10° NE visible
15 May -2.8 03:43:41 10° NW 03:46:59 48° NNE 03:50:16 10° ESE visible
15 May -2.9 22:03:17 10° WSW 22:06:34 51° NNW 22:09:52 10° NE visible
15 May -0.6 23:41:49 10° NW 23:43:59 16° NNW 23:46:08 10° NNE visible
16 May -0.4 01:20:02 10° NNW 01:21:51 14° N 01:23:40 10° NE visible
16 May -1.9 02:56:22 10° NW 02:59:28 32° NNE 03:02:32 10° E visible
16 May -3.1 04:33:11 10° WNW 04:36:15 33° SW 04:39:19 10° SSE visible
16 May -3.8 21:15:45 10° SW 21:19:06 86° NW 21:22:29 10° NE visible
16 May -0.9 22:53:49 10° WNW 22:56:19 19° NNW 22:58:49 10° NNE visible
17 May -0.4 00:32:31 10° NNW 00:34:09 13° N 00:35:47 10° NNE visible
17 May -1.3 02:09:05 10° NNW 02:11:53 24° NNE 02:14:40 10° ENE visible
17 May -3.8 03:45:34 10° WNW 03:48:54 58° SW 03:52:13 10° SE visible
17 May -1.3 22:05:53 10° W 22:08:42 24° NNW 22:11:32 10° NE visible
17 May -0.4 23:44:47 10° NNW 23:46:25 13° N 23:48:04 10° NNE visible
